Weather reports worldwide

Advertisment
Amberieu, France (7482): temperature & dewpoint: 18.03.2019 17:00:00 - 24.03.2019 17:00:00 (CET)Amberieu, France (7482): temperature 5cm: 18.03.2019 17:00:00 - 24.03.2019 17:00:00 (CET)Amberieu, France (7482): temperature -20cm & temperature -100cm: 18.03.2019 17:00:00 - 24.03.2019 17:00:00 (CET)Amberieu, France (7482): wind speed & gusts: 18.03.2019 17:00:00 - 24.03.2019 17:00:00 (CET)Amberieu, France (7482): wind direction: 18.03.2019 17:00:00 - 24.03.2019 17:00:00 (CET)Amberieu, France (7482): reduced air pressure: 18.03.2019 17:00:00 - 24.03.2019 17:00:00 (CET)Amberieu, France (7482): visibility: 18.03.2019 17:00:00 - 24.03.2019 17:00:00 (CET)Amberieu, France (7482): sunshine duration: 18.03.2019 17:00:00 - 24.03.2019 17:00:00 (CET)Amberieu, France (7482): precipitation: 18.03.2019 17:00:00 - 24.03.2019 17:00:00 (CET)
Date & Time tt [°C] td [°C] tt 5cm [°C] tt -20cm [°C] tt -100cm [°C] ff [km/h] ff [kn] fx [km/h] fx [kn] dd ppp [hPa] vv [km] sd [min] rr [mm]
24.03.2019 17:00:00 17,8 4,4 19,9 9,2 9,3 19 11 30 16 N 1022,2 18 60 0,0
24.03.2019 16:00:00 18,0 3,8 24,8 9,1 9,3 17 9 28 15 N 1022,5 17 60 0,0
24.03.2019 15:00:00 18,4 3,4 26,7 9,1 9,3 14 8 26 14 N 1023,0 17 60 0,0
24.03.2019 14:00:00 18,4 4,9 26,2 9,2 9,3 15 8 28 15 N 1023,4 16 60 0,0
24.03.2019 13:00:00 17,9 4,1 25,8 9,1 9,3 11 6 20 11 NNW 1024,1 18 60 0,0
24.03.2019 12:00:00 15,3 3,4 23,1 9,1 9,3 7 4 14 7 NNW 1024,9 20 60 0,0
24.03.2019 11:00:00 13,4 3,5 19,8 9,2 9,2 4 2 9 5 WNW 1025,8 20 60 0,0
24.03.2019 10:00:00 10,9 3,0 17,8 9,2 9,2 4 2 6 4 W 1026,2 20 60 0,0
24.03.2019 09:00:00 8,3 2,9 10,7 9,1 9,2 3 1 10 5 NNW 1026,6 20 60 0,0
24.03.2019 08:00:00 4,2 1,7 0,7 9,2 9,2 6 3 9 5 N 1027,0 20 48 0,0
24.03.2019 07:00:00 1,2 -0,1 -1,3 9,3 9,2 8 4 10 5 NE 1027,2 20 0 0,0
24.03.2019 06:00:00 1,1 -0,7 -1,9 9,2 9,3 5 3 9 5 NNE 1027,0 20 0 0,0
24.03.2019 05:00:00 1,0 -1,1 -2,2 9,3 9,2 8 4 10 5 NNE 1026,7 20 0 0,0
24.03.2019 04:00:00 3,3 0,3 -1,8 9,4 9,2 0 0 5 3 N 1026,2 20 0 0,0
24.03.2019 03:00:00 2,6 -0,3 -1,3 9,3 9,2 0 0 11 6 N 1026,0 20 0 0,0
24.03.2019 02:00:00 3,5 0,2 0,0 9,3 9,2 5 3 11 6 NNE 1026,2 20 0 0,0
24.03.2019 01:00:00 6,1 0,6 0,8 9,3 9,2 8 4 10 5 ENE 1025,9 20 0 0,0
24.03.2019 00:00:00 6,2 1,3 0,8 9,4 9,2 3 1 9 5 NNW 1025,9 20 0 0,0
23.03.2019 23:00:00 5,7 1,8 1,2 9,3 9,2 6 3 11 6 NNE 1026,2 20 0 0,0
23.03.2019 22:00:00 8,0 2,2 5,6 9,2 9,2 6 3 13 7 NE 1026,3 20 0 0,0
23.03.2019 21:00:00 11,1 1,9 7,8 9,2 9,2 8 5 16 8 N 1026,0 20 0 0,0
23.03.2019 20:00:00 13,4 1,7 9,1 9,1 9,2 13 7 18 10 NNE 1025,5 20 0 0,0
23.03.2019 19:00:00 14,5 1,0 12,0 9,1 9,2 11 6 29 16 N 1025,0 20 32 0,0
23.03.2019 18:00:00 17,6 1,1 18,0 9,0 9,2 21 11 36 19 NNW 1024,5 20 60 0,0
23.03.2019 17:00:00 18,8 1,3 20,3 9,0 9,2 27 15 42 23 NNW 1024,4 20 60 0,0
23.03.2019 16:00:00 19,5 1,4 25,9 8,9 9,2 27 15 42 23 NNW 1024,7 20 60 0,0
23.03.2019 15:00:00 20,4 3,1 27,1 8,8 9,2 24 13 41 22 NNW 1024,8 19 60 0,0
23.03.2019 14:00:00 19,8 3,5 27,7 8,9 9,2 24 13 37 20 NNW 1025,4 20 60 0,0
23.03.2019 13:00:00 19,6 2,4 25,6 8,9 9,2 17 9 31 17 NNW 1026,2 20 60 0,0
23.03.2019 12:00:00 15,9 3,7 23,2 8,9 9,2 4 2 15 8 E 1027,3 20 60 0,0
23.03.2019 11:00:00 14,1 2,3 21,0 8,8 9,2 5 3 11 6 NNW 1028,1 18 60 0,0
23.03.2019 10:00:00 11,3 2,1 16,3 8,9 9,1 4 2 9 5 NW 1028,9 20 60 0,0
23.03.2019 09:00:00 8,7 2,7 12,3 8,9 9,2 3 2 6 3 SW 1029,3 20 60 0,0
23.03.2019 08:00:00 5,5 1,6 -0,5 8,9 9,2 3 2 8 4 NNE 1029,4 20 50 0,0
23.03.2019 07:00:00 1,9 0,1 -1,3 9,1 9,2 5 3 8 4 NNW 1029,5 20 0 0,0
23.03.2019 06:00:00 1,7 -0,1 -1,3 9,1 9,2 9 5 13 7 NNE 1029,4 20 0 0,0
23.03.2019 05:00:00 2,9 0,3 -0,6 9,0 9,2 5 3 11 6 NNE 1029,1 20 0 0,0
23.03.2019 04:00:00 3,6 0,3 1,0 9,0 9,2 6 3 9 5 NNE 1029,2 20 0 0,0
23.03.2019 03:00:00 3,5 0,4 2,0 9,0 9,2 7 4 10 5 NNE 1029,3 20 0 0,0
23.03.2019 02:00:00 2,7 -0,2 1,5 9,0 9,2 6 3 13 7 NNE 1029,2 20 0 0,0
23.03.2019 01:00:00 7,4 1,2 1,6 9,0 9,2 6 3 11 6 SE 1028,9 20 0 0,0
23.03.2019 00:00:00 7,8 1,4 2,8 9,0 9,2 7 4 11 6 NE 1028,7 20 0 0,0
22.03.2019 23:00:00 5,8 1,1 0,5 8,9 9,2 9 5 11 6 NE 1028,8 20 0 0,0
22.03.2019 22:00:00 6,6 1,7 2,9 8,9 9,2 7 4 9 5 NE 1028,7 20 0 0,0
22.03.2019 21:00:00 8,7 1,6 3,4 8,8 9,2 5 3 15 8 NNE 1028,3 20 0 0,0
22.03.2019 20:00:00 11,0 1,2 8,5 8,7 9,2 13 7 16 9 NNE 1027,8 20 0 0,0
22.03.2019 19:00:00 13,8 1,1 10,7 8,7 9,2 11 6 18 10 N 1027,3 20 31 0,0
22.03.2019 18:00:00 17,3 0,9 17,8 8,7 9,2 15 8 21 12 N 1026,7 20 60 0,0
22.03.2019 17:00:00 19,2 0,2 20,9 8,5 9,2 14 8 19 11 N 1026,8 20 60 0,0
22.03.2019 16:00:00 19,3 1,3 27,5 8,5 9,2 12 6 19 10 N 1027,2 20 60 0,0
22.03.2019 15:00:00 19,1 3,7 27,1 8,5 9,2 9 5 18 10 NW 1027,7 19 60 0,0
22.03.2019 14:00:00 18,2 2,1 25,7 8,4 9,2 5 3 13 7 WNW 1028,3 20 60 0,0
22.03.2019 13:00:00 16,4 1,7 23,5 8,5 9,1 7 4 13 7 W 1029,3 19 60 0,0
22.03.2019 12:00:00 14,3 1,9 20,3 8,5 9,2 6 3 11 6 W 1029,9 18 60 0,0
22.03.2019 11:00:00 11,9 1,8 17,4 8,5 9,2 5 3 11 6 SW 1030,7 20 60 0,0
22.03.2019 10:00:00 9,5 2,8 15,0 8,6 9,2 6 3 10 5 SW 1031,1 19 60 0,0
22.03.2019 09:00:00 6,4 2,5 8,5 8,6 9,2 3 2 7 4 N 1031,5 20 60 0,0
22.03.2019 08:00:00 2,3 0,5 -1,3 8,6 9,2 5 3 9 5 NNE 1032,0 19 48 0,0
22.03.2019 07:00:00 0,1 -1,2 -1,4 8,7 9,2 8 4 10 5 N 1031,9 14 0 0,0
22.03.2019 06:00:00 0,1 -1,3 -1,2 8,7 9,2 7 4 10 5 NNE 1031,6 16 0 0,0
22.03.2019 05:00:00 0,7 -0,5 -0,9 8,7 9,2 8 4 10 5 NNE 1031,1 20 0 0,0
22.03.2019 04:00:00 1,1 -0,7 -0,3 8,7 9,2 7 4 13 7 NNE 1031,2 20 0 0,0
22.03.2019 03:00:00 1,8 -0,5 0,1 8,6 9,2 5 3 16 9 ENE 1031,1 20 0 0,0
22.03.2019 02:00:00 2,4 0,1 -0,3 8,6 9,2 7 4 12 6 ESE 1031,4 20 0 0,0
22.03.2019 01:00:00 2,5 0,1 -1,3 8,7 9,2 5 3 9 5 NNE 1031,5 20 0 0,0
22.03.2019 00:00:00 3,7 -0,1 0,4 8,7 9,2 4 2 12 6 E 1031,2 20 0 0,0
21.03.2019 23:00:00 3,2 -0,1 0,0 8,7 9,2 4 2 10 5 N 1031,0 20 0 0,0
21.03.2019 22:00:00 3,9 -0,1 -0,7 8,6 9,2 6 3 10 5 N 1031,0 20 0 0,0
21.03.2019 21:00:00 7,6 0,6 2,0 8,6 9,2 8 4 10 6 SE 1030,3 20 0 0,0
21.03.2019 20:00:00 8,7 0,2 4,3 8,5 9,2 7 4 10 5 ENE 1030,0 20 0 0,0
21.03.2019 19:00:00 9,8 0,1 8,0 8,5 9,2 8 5 16 8 N 1029,8 20 30 0,0
21.03.2019 18:00:00 12,7 0,7 14,0 8,4 9,2 11 6 22 12 N 1029,1 20 60 0,0
21.03.2019 17:00:00 13,8 0,8 16,2 8,3 9,2 12 7 22 12 N 1028,8 20 60 0,0
21.03.2019 16:00:00 14,5 0,7 21,9 8,3 9,2 13 7 24 13 NW 1028,9 19 60 0,0
21.03.2019 15:00:00 13,8 0,8 21,7 8,2 9,2 11 6 20 11 WNW 1029,1 20 60 0,0
21.03.2019 14:00:00 13,2 0,6 21,4 8,3 9,2 6 3 16 8 SSW 1029,6 20 60 0,0
21.03.2019 13:00:00 12,1 -0,8 18,9 8,2 9,2 4 2 14 8 S 1030,4 20 60 0,0
21.03.2019 12:00:00 10,3 0,3 16,8 8,4 9,2 8 4 19 10 SW 1031,0 19 60 0,0
21.03.2019 11:00:00 8,9 0,3 14,9 8,4 9,2 8 4 18 10 SSW 1031,3 16 60 0,0
21.03.2019 10:00:00 6,8 0,5 11,6 8,4 9,2 8 5 16 9 SW 1031,8 20 60 0,0
21.03.2019 09:00:00 3,9 -0,5 5,9 8,5 9,2 3 1 6 3 SSW 1032,2 20 60 0,0
21.03.2019 08:00:00 0,5 -2,2 -4,4 8,5 9,2 0 0 5 3 N 1032,5 20 42 0,0
21.03.2019 07:00:00 -2,1 -3,5 -4,8 8,6 9,2 5 3 8 4 N 1032,2 20 0 0,0
21.03.2019 06:00:00 -2,1 -4,0 -5,5 8,6 9,2 4 2 6 4 N 1031,8 20 0 0,0
21.03.2019 05:00:00 -1,3 -4,0 -4,8 8,6 9,2 4 2 6 3 E 1031,6 20 0 0,0
21.03.2019 04:00:00 -1,0 -4,2 -5,0 8,6 9,2 3 2 6 4 NNE 1031,2 20 0 0,0
21.03.2019 03:00:00 1,0 -3,7 -4,5 8,6 9,2 0 0 8 4 N 1031,0 20 0 0,0
21.03.2019 02:00:00 3,5 -3,5 -2,4 8,7 9,2 4 2 8 5 SSE 1031,2 20 0 0,0
21.03.2019 01:00:00 3,5 -3,3 -1,0 8,7 9,3 4 2 13 7 E 1031,0 20 0 0,0
21.03.2019 00:00:00 1,6 -3,3 0,4 8,6 9,2 11 6 16 9 NNE 1031,1 20 0 0,0
20.03.2019 23:00:00 3,3 -3,1 1,2 8,6 9,2 8 5 20 11 NE 1030,9 20 0 0,0
20.03.2019 22:00:00 6,2 -2,4 2,1 8,6 9,2 16 9 18 10 NNE 1030,8 20 0 0,0
20.03.2019 21:00:00 6,6 -2,6 5,0 8,5 9,2 13 7 18 10 NNE 1030,9 20 0 0,0
20.03.2019 20:00:00 7,1 -3,2 4,9 8,5 9,3 14 7 29 16 NNE 1030,5 20 0 0,0
20.03.2019 19:00:00 9,6 -3,0 8,2 8,5 9,2 21 11 45 25 N 1029,8 20 28 0,0
20.03.2019 18:00:00 11,8 -2,8 11,9 8,4 9,2 29 16 49 27 N 1029,1 20 60 0,0
20.03.2019 17:00:00 13,2 -1,6 14,3 8,4 9,2 32 17 48 26 NNW 1028,3 20 60 0,0
20.03.2019 16:00:00 13,8 -1,8 19,9 8,5 9,2 31 17 47 26 N 1028,4 20 60 0,0
20.03.2019 15:00:00 14,1 -0,8 21,0 8,4 9,2 26 14 42 23 NNW 1028,9 20 60 0,0
20.03.2019 14:00:00 13,7 -0,4 21,0 8,5 9,3 24 13 37 20 NNW 1029,4 20 60 0,0
20.03.2019 13:00:00 12,7 0,4 19,3 8,4 9,2 24 13 35 19 N 1030,1 20 60 0,0
20.03.2019 12:00:00 10,4 -0,7 18,0 8,4 9,2 16 8 24 13 N 1030,6 20 60 0,0
20.03.2019 11:00:00 8,2 0,4 12,7 8,6 9,2 5 3 15 8 NE 1031,4 20 60 0,0
20.03.2019 10:00:00 5,8 -0,5 9,9 8,5 9,2 10 5 16 9 NE 1031,6 20 60 0,0
20.03.2019 09:00:00 3,6 -1,0 6,6 8,7 9,2 5 3 11 6 ENE 1031,8 20 60 0,0
20.03.2019 08:00:00 1,1 -1,3 -4,2 8,6 9,3 4 2 13 7 NE 1031,9 20 45 0,0
20.03.2019 07:00:00 -2,4 -3,8 -4,9 8,6 9,2 8 4 16 9 NNE 1031,9 20 0 0,0
20.03.2019 06:00:00 -0,4 -2,9 -2,9 8,8 9,3 11 6 14 8 N 1031,2 20 0 0,0
20.03.2019 05:00:00 -0,9 -2,9 -2,6 8,7 9,3 8 4 19 10 NNE 1030,9 20 0 0,0
20.03.2019 04:00:00 0,1 -2,4 -0,9 8,8 9,3 14 7 22 12 NNE 1030,8 20 0 0,0
20.03.2019 03:00:00 0,4 -2,5 -0,9 8,8 9,3 13 7 19 10 N 1030,7 20 0 0,0
20.03.2019 02:00:00 1,0 -2,4 -2,1 8,9 9,2 16 9 18 10 NNE 1030,5 20 0 0,0
20.03.2019 01:00:00 0,9 -3,2 -3,7 8,9 9,3 9 5 13 7 NNE 1030,6 20 0 0,0
20.03.2019 00:00:00 0,7 -3,0 -2,0 8,9 9,3 11 6 18 10 NNW 1030,4 20 0 0,0
19.03.2019 23:00:00 2,3 -2,6 -0,2 8,9 9,2 15 8 20 11 NNE 1029,8 20 0 0,0
19.03.2019 22:00:00 2,5 -2,6 -0,4 8,9 9,3 9 5 16 8 N 1029,5 20 0 0,0
19.03.2019 21:00:00 4,8 -2,8 1,9 8,8 9,3 14 7 16 9 NNE 1028,8 20 0 0,0
19.03.2019 20:00:00 4,3 -2,6 2,4 8,8 9,2 10 5 23 12 NE 1028,6 20 0 0,0
19.03.2019 19:00:00 7,6 -0,6 6,0 8,8 9,2 18 10 36 20 N 1027,6 20 24 0,0
19.03.2019 18:00:00 9,7 -0,2 10,1 8,7 9,2 25 13 46 25 NNW 1026,5 20 60 0,0
19.03.2019 17:00:00 11,1 0,5 9,7 8,8 9,3 29 15 45 25 NNW 1025,8 20 34 0,0
19.03.2019 16:00:00 9,7 0,6 10,7 8,7 9,2 26 14 42 23 N 1025,9 20 17 0,0
19.03.2019 15:00:00 10,0 1,1 11,9 8,8 9,2 24 13 44 24 N 1025,8 20 19 0,0
19.03.2019 14:00:00 10,7 2,3 13,1 8,7 9,2 29 16 44 24 N 1025,9 20 42 0,0
19.03.2019 13:00:00 10,9 2,5 17,7 8,8 9,2 25 14 40 22 N 1025,9 20 60 0,0
19.03.2019 12:00:00 10,0 2,8 15,7 8,9 9,2 22 12 34 18 N 1026,0 19 60 0,0
19.03.2019 11:00:00 8,0 3,5 13,3 8,8 9,2 15 8 23 12 NNW 1026,6 20 60 0,0
19.03.2019 10:00:00 4,7 2,4 9,1 8,9 9,2 10 5 16 9 N 1027,1 20 60 0,0
19.03.2019 09:00:00 2,5 1,5 1,8 8,9 9,2 9 5 18 10 N 1027,1 19 54 0,0
19.03.2019 08:00:00 0,5 0,2 -2,0 9,0 9,2 9 5 14 8 N 1026,8 6 24 0,0
19.03.2019 07:00:00 -0,8 -1,2 -2,0 9,0 9,2 10 6 18 10 NNE 1026,4 18 0 0,0
19.03.2019 06:00:00 -0,7 -1,4 -1,9 9,1 9,2 11 6 18 10 NNE 1025,6 19 0 0,0
19.03.2019 05:00:00 -0,2 -0,8 -1,9 9,1 9,2 14 7 17 9 NNE 1025,6 20 0 0,0
19.03.2019 04:00:00 -0,2 -0,8 -1,8 9,1 9,2 10 6 15 8 NNE 1025,4 20 0 0,0
19.03.2019 03:00:00 0,2 -0,5 -3,1 9,1 9,2 11 6 17 9 N 1025,1 20 0 0,0
19.03.2019 02:00:00 0,1 -0,6 -1,5 9,1 9,2 7 4 14 8 NE 1025,2 20 0 0,0
19.03.2019 01:00:00 0,5 -0,2 -2,4 9,2 9,2 8 4 10 5 NNE 1025,4 20 0 0,0
19.03.2019 00:00:00 0,9 -0,4 -1,7 9,1 9,2 4 2 8 4 NNE 1025,5 20 0 0,0
18.03.2019 23:00:00 1,9 0,9 0,2 9,2 9,2 6 4 9 5 NE 1025,4 20 0 0,0
18.03.2019 22:00:00 2,6 1,4 -0,7 9,2 9,2 6 3 7 4 NE 1025,5 20 0 0,0
18.03.2019 21:00:00 4,3 2,5 1,4 9,1 9,2 5 3 9 5 E 1025,2 20 0 0,0
18.03.2019 20:00:00 4,6 2,1 2,0 9,1 9,2 3 1 10 5 W 1024,7 20 0 0,0
18.03.2019 19:00:00 6,1 2,4 5,6 9,1 9,2 5 3 9 5 ESE 1024,3 20 0 0,0
18.03.2019 18:00:00 6,8 2,5 6,7 9,0 9,2 8 4 37 20 ENE 1024,0 20 20 0,0
18.03.2019 17:00:00 8,5 3,1 6,3 9,0 9,2 4 2 16 9 SSE 1023,4 20 22 0,0

tt = temperature
td = dewpoint
tt 5cm = temperature 5cm
tt -20cm = temperature -20cm
tt -100cm = temperature -100cm
ff = wind speed
fx = gusts
dd = wind direction
ppp = reduced air pressure
vv = visibility
sd = sunshine duration
rr = precipitation

Next stations